W0WC Weather Reports


time (UTC)temp
C
wind
direction
speed
KPH
gust
KPH
rain 1hr
cm
rain 24hr
cm
rain mn
cm
humidity
%
barometer
mb
20260504184603 26 136 8.0 12.9 0.00 0.00 0.00 45 1006.3
20260504184058 26 158 9.7 16.1 0.00 0.00 0.00 45 1006.3
20260504183556 26 249 16.1 24.1 0.00 0.00 0.00 44 1006.4
20260504183054 26 256 14.5 24.1 0.00 0.00 0.00 45 1006.2
20260504182550 25 180 14.5 20.9 0.00 0.00 0.00 47 1006.1
20260504182048 25 249 14.5 17.7 0.00 0.00 0.00 46 1006.2
20260504181545 25 179 19.3 27.4 0.00 0.00 0.00 45 1006.4
20260504181043 26 249 14.5 17.7 0.00 0.00 0.00 45 1006.4
20260504180542 26 210 16.1 25.7 0.00 0.00 0.00 45 1006.4
20260504180040 26 264 17.7 24.1 0.00 0.00 0.00 45 1006.5
20260504175537 26 218 6.4 11.3 0.00 0.00 0.00 45 1006.7
20260504175034 25 239 9.7 17.7 0.00 0.00 0.00 46 1006.6
20260504174532 25 202 20.9 24.1 0.00 0.00 0.00 45 1006.6
20260504174028 25 218 19.3 24.1 0.00 0.00 0.00 45 1006.5
20260504173525 25 211 22.5 25.7 0.00 0.00 0.00 45 1006.6
20260504173023 25 194 9.7 12.9 0.00 0.00 0.00 46 1006.7
20260504172519 25 214 14.5 25.7 0.00 0.00 0.00 47 1006.7
20260504172015 25 211 11.3 20.9 0.00 0.00 0.00 47 1006.7
20260504171512 25 213 14.5 22.5 0.00 0.00 0.00 47 1006.7
20260504171009 25 163 14.5 30.6 0.00 0.00 0.00 47 1006.6
20260504170505 25 228 11.3 16.1 0.00 0.00 0.00 47 1006.7
20260504160425 23 206 17.7 27.4 0.00 0.00 0.00 48 1007.2
20260504150848 22 156 14.5 20.9 0.00 0.00 0.00 50 1007.3
20260504150345 22 183 11.3 14.5 0.00 0.00 0.00 51 1007.7
20260504141315 20 237 4.8 9.7 0.00 0.00 0.00 52 1008.2
20260504140812 20 207 17.7 22.5 0.00 0.00 0.00 52 1008.2
20260504140308 20 188 6.4 12.9 0.00 0.00 0.00 52 1008.5
20260504130737 18 187 9.7 14.5 0.00 0.00 0.00 55 1008.7
20260504130232 18 169 8.0 11.3 0.00 0.00 0.00 55 1008.6
20260504120156 17 194 6.4 11.3 0.00 0.00 0.00 58 1008.9
20260504110624 17 203 6.4 9.7 0.00 0.00 0.00 56 1009.0
20260504110120 17 165 9.7 12.9 0.00 0.00 0.00 56 1009.2
20260504100545 18 90 4.8 6.4 0.00 0.00 0.00 53 1009.2
20260504081939 19 179 8.0 12.9 0.00 0.00 0.00 49 1009.7
20260504081436 19 235 8.0 14.5 0.00 0.00 0.00 49 1009.7
20260504080932 20 180 8.0 9.7 0.00 0.00 0.00 48 1009.7
20260504080429 20 229 9.7 12.9 0.00 0.00 0.00 48 1009.7
20260504070356 20 213 4.8 6.4 0.00 0.00 0.00 48 1010.3
20260504050744 20 206 9.7 12.9 0.00 0.00 0.00 48 1011.1
20260504050242 21 235 11.3 14.5 0.00 0.00 0.00 47 1010.9
20260504045739 20 281 9.7 12.9 0.00 0.00 0.00 47 1010.9
20260504045238 20 246 8.0 11.3 0.00 0.00 0.00 47 1010.9
20260504044737 21 217 4.8 6.4 0.00 0.00 0.00 47 1011.2
20260504044234 21 179 6.4 9.7 0.00 0.00 0.00 46 1011.0
20260504043731 21 164 8.0 9.7 0.00 0.00 0.00 46 1011.2
20260504043227 21 61 4.8 6.4 0.00 0.00 0.00 46 1011.1
20260504042726 21 233 14.5 20.9 0.00 0.00 0.00 45 1011.0
20260504042222 21 285 6.4 9.7 0.00 0.00 0.00 45 1011.1
20260504041718 21 228 8.0 12.9 0.00 0.00 0.00 45 1011.1
20260504041214 21 215 6.4 9.7 0.00 0.00 0.00 45 1011.3
20260504040710 21 158 6.4 6.4 0.00 0.00 0.00 44 1011.3
20260504040208 21 206 6.4 9.7 0.00 0.00 0.00 44 1011.2
20260504035704 21 205 9.7 14.5 0.00 0.00 0.00 44 1011.3
20260504035201 21 205 6.4 11.3 0.00 0.00 0.00 44 1011.2
20260504034659 21 136 4.8 6.4 0.00 0.00 0.00 44 1011.2
20260504034155 21 177 8.0 11.3 0.00 0.00 0.00 44 1011.2
20260504033653 21 221 3.2 4.8 0.00 0.00 0.00 44 1011.2
20260504033150 21 195 8.0 9.7 0.00 0.00 0.00 44 1011.4
20260504032647 21 192 14.5 17.7 0.00 0.00 0.00 45 1011.4
20260504032144 21 216 6.4 9.7 0.00 0.00 0.00 45 1011.1
20260504031641 21 216 6.4 6.4 0.00 0.00 0.00 46 1011.2
20260504031137 21 111 4.8 6.4 0.00 0.00 0.00 46 1011.3
20260504030634 21 106 4.8 4.8 0.00 0.00 0.00 46 1011.3
20260504030131 21 185 4.8 6.4 0.00 0.00 0.00 47 1011.4
20260504025628 21 151 6.4 6.4 0.00 0.00 0.00 47 1011.3
20260504025124 21 215 6.4 11.3 0.00 0.00 0.00 48 1011.2
20260504024622 21 221 8.0 11.3 0.00 0.00 0.00 49 1011.3
20260504024118 21 204 4.8 6.4 0.00 0.00 0.00 49 1011.3
20260504023615 21 201 8.0 9.7 0.00 0.00 0.00 49 1011.5
20260504023111 21 47 3.2 3.2 0.00 0.00 0.00 50 1011.2
20260504022607 21 199 3.2 4.8 0.00 0.00 0.00 50 1011.2
20260504022103 21 97 1.6 1.6 0.00 0.00 0.00 52 1011.3
20260504021601 21 143 3.2 4.8 0.00 0.00 0.00 51 1011.3
20260504021058 21 81 3.2 3.2 0.00 0.00 0.00 51 1011.2
20260504020555 21 51 3.2 4.8 0.00 0.00 0.00 51 1011.2
20260504020051 21 177 3.2 4.8 0.00 0.00 0.00 51 1011.2
20260504015548 21 65 3.2 3.2 0.00 0.00 0.00 51 1011.1
20260504015043 21 122 1.6 3.2 0.00 0.00 0.00 51 1011.2
20260504014540 21 108 3.2 3.2 0.00 0.00 0.00 51 1011.1
20260504014037 22 66 1.6 1.6 0.00 0.00 0.00 51 1011.1
20260504013535 22 37 1.6 1.6 0.00 0.00 0.00 51 1011.2
20260504013032 22 29 1.6 1.6 0.00 0.00 0.00 50 1011.1
20260504012529 22 100 3.2 4.8 0.00 0.00 0.00 49 1011.0
20260504012027 22 63 3.2 3.2 0.00 0.00 0.00 48 1011.1
20260504011523 23 54 1.6 3.2 0.00 0.00 0.00 47 1011.1
20260504011020 23 45 3.2 3.2 0.00 0.00 0.00 46 1011.0
20260504010515 23 173 1.6 3.2 0.00 0.00 0.00 45 1010.9
20260504010011 23 47 3.2 3.2 0.00 0.00 0.00 45 1011.1
20260504005508 23 46 1.6 3.2 0.00 0.00 0.00 45 1011.0
20260504005006 23 179 3.2 4.8 0.00 0.00 0.00 44 1011.1
20260504004503 23 66 1.6 3.2 0.00 0.00 0.00 45 1011.1
20260504004000 24 210 0.0 1.6 0.00 0.00 0.00 44 1011.1
20260504003456 24 219 4.8 4.8 0.00 0.00 0.00 44 1011.1
20260504002953 24 84 3.2 3.2 0.00 0.00 0.00 44 1011.2
20260504002450 24 78 3.2 4.8 0.00 0.00 0.00 43 1011.2
20260504001948 25 161 6.4 6.4 0.00 0.00 0.00 43 1011.3
20260504001445 25 229 3.2 3.2 0.00 0.00 0.00 43 1011.2
20260504000942 25 155 3.2 4.8 0.00 0.00 0.00 42 1011.3
20260504000439 25 135 3.2 3.2 0.00 0.00 0.00 42 1011.5
20260503235936 25 172 4.8 6.4 0.00 0.00 0.00 41 1011.3
20260503235433 25 169 6.4 9.7 0.00 0.00 0.00 41 1011.5
20260503234931 25 200 8.0 9.7 0.00 0.00 0.00 40 1011.5
20260503234428 25 145 11.3 17.7 0.00 0.00 0.00 40 1011.6
20260503233926 25 222 8.0 12.9 0.00 0.00 0.00 40 1011.7
20260503233422 25 76 6.4 9.7 0.00 0.00 0.00 40 1011.7
20260503232919 26 237 9.7 11.3 0.00 0.00 0.00 40 1011.8
20260503232416 26 217 6.4 6.4 0.00 0.00 0.00 39 1011.6
20260503231914 26 192 6.4 9.7 0.00 0.00 0.00 39 1011.8
20260503231411 26 165 9.7 12.9 0.00 0.00 0.00 38 1011.8
20260503230907 26 168 6.4 11.3 0.00 0.00 0.00 38 1011.9
20260503230404 26 250 8.0 11.3 0.00 0.00 0.00 38 1011.8
20260503225901 26 330 1.6 3.2 0.00 0.00 0.00 38 1012.0
20260503225357 26 182 11.3 14.5 0.00 0.00 0.00 37 1011.9
20260503224854 26 217 12.9 14.5 0.00 0.00 0.00 37 1012.1
20260503224351 26 220 12.9 16.1 0.00 0.00 0.00 36 1011.9
20260503223849 26 207 4.8 6.4 0.00 0.00 0.00 37 1012.1
20260503223347 26 323 3.2 4.8 0.00 0.00 0.00 37 1012.0
20260503222842 26 232 6.4 11.3 0.00 0.00 0.00 37 1012.0
20260503222340 26 203 12.9 20.9 0.00 0.00 0.00 36 1012.1
20260503221838 26 146 3.2 3.2 0.00 0.00 0.00 37 1012.2
20260503221337 26 31 3.2 4.8 0.00 0.00 0.00 35 1012.2
20260503220832 26 176 3.2 4.8 0.00 0.00 0.00 35 1012.3
20260503220329 27 218 14.5 17.7 0.00 0.00 0.00 34 1012.3
20260503215826 27 27 3.2 4.8 0.00 0.00 0.00 36 1012.4
20260503215323 27 216 14.5 25.7 0.00 0.00 0.00 34 1012.5
20260503214821 27 13 4.8 4.8 0.00 0.00 0.00 34 1012.5
20260503214318 27 241 8.0 11.3 0.00 0.00 0.00 34 1012.5
20260503213815 27 221 11.3 14.5 0.00 0.00 0.00 34 1012.5
20260503213313 27 170 3.2 4.8 0.00 0.00 0.00 34 1012.7
20260503212810 27 228 11.3 16.1 0.00 0.00 0.00 34 1012.9
20260503212308 27 230 3.2 6.4 0.00 0.00 0.00 34 1013.0
20260503211805 27 233 6.4 9.7 0.00 0.00 0.00 34 1012.8
20260503211301 27 310 16.1 24.1 0.00 0.00 0.00 33 1013.0
20260503210801 27 263 8.0 11.3 0.00 0.00 0.00 35 1013.2
20260503210259 27 280 11.3 17.7 0.00 0.00 0.00 34 1013.2
20260503205754 27 327 4.8 4.8 0.00 0.00 0.00 37 1013.6
20260503205251 27 228 6.4 9.7 0.00 0.00 0.00 36 1013.5
20260503204747 27 204 4.8 6.4 0.00 0.00 0.00 35 1013.5
20260503204245 27 279 4.8 6.4 0.00 0.00 0.00 37 1013.5
20260503203742 27 212 11.3 22.5 0.00 0.00 0.00 37 1013.5
20260503203239 27 358 6.4 11.3 0.00 0.00 0.00 36 1013.6
20260503202736 27 211 9.7 12.9 0.00 0.00 0.00 34 1013.8
20260503202234 27 225 6.4 11.3 0.00 0.00 0.00 36 1013.8
20260503201732 27 193 8.0 11.3 0.00 0.00 0.00 37 1014.0
20260503201229 26 270 3.2 6.4 0.00 0.00 0.00 35 1013.9
20260503200726 26 219 12.9 14.5 0.00 0.00 0.00 37 1014.0
20260503200222 26 238 14.5 17.7 0.00 0.00 0.00 36 1014.2
20260503195719 27 189 6.4 9.7 0.00 0.00 0.00 36 1014.2
20260503195216 27 14 3.2 4.8 0.00 0.00 0.00 37 1014.2
20260503194713 26 281 3.2 4.8 0.00 0.00 0.00 38 1014.5
20260503194209 26 3 3.2 6.4 0.00 0.00 0.00 39 1014.2
20260503193705 27 234 14.5 17.7 0.00 0.00 0.00 35 1014.5
20260503193201 26 275 6.4 6.4 0.00 0.00 0.00 38 1014.8
20260503192657 26 220 19.3 22.5 0.00 0.00 0.00 37 1014.6
20260503192152 26 201 9.7 12.9 0.00 0.00 0.00 37 1014.7
20260503191649 26 234 9.7 11.3 0.00 0.00 0.00 37 1014.9
20260503191147 26 209 4.8 11.3 0.00 0.00 0.00 38 1014.7
20260503190643 26 202 8.0 12.9 0.00 0.00 0.00 37 1015.0
20260503190140 26 201 8.0 12.9 0.00 0.00 0.00 37 1015.0
20260503185637 26 239 4.8 9.7 0.00 0.00 0.00 39 1015.1
20260503185132 26 320 8.0 11.3 0.00 0.00 0.00 38 1015.0
20260503184627 25 292 6.4 6.4 0.00 0.00 0.00 38 1015.2